Hourly Weather Leszno

Today, 16 July, Thursday

Time Temperature Precipitation Wind Pressure Humidity
00:00 +16°C° 0.2 mm 3 mps 750 mmHg 93%
01:00 +15°C° 0 mm 4 mps 751 mmHg 94%
02:00 +14°C° 0 mm 4 mps 750 mmHg 95%
03:00 +13°C° 0 mm 4 mps 750 mmHg 96%
04:00 +13°C° 0 mm 4 mps 750 mmHg 97%
05:00 +13°C° 0 mm 3 mps 751 mmHg 94%
06:00 +14°C° 0 mm 3 mps 751 mmHg 91%
07:00 +16°C° 0 mm 3 mps 751 mmHg 89%
08:00 +17°C° 0.3 mm 3 mps 751 mmHg 83%
09:00 +18°C° 0.3 mm 3 mps 751 mmHg 78%
10:00 +19°C° 0.3 mm 3 mps 751 mmHg 72%
11:00 +19°C° 0.7 mm 3 mps 751 mmHg 68%
12:00 +20°C° 0.7 mm 4 mps 751 mmHg 65%
13:00 +21°C° 0.7 mm 4 mps 751 mmHg 61%
14:00 +21°C° 0.9 mm 4 mps 751 mmHg 61%
15:00 +21°C° 0.9 mm 4 mps 751 mmHg 61%
16:00 +21°C° 0.9 mm 4 mps 751 mmHg 61%
17:00 +20°C° 0.2 mm 4 mps 751 mmHg 65%
18:00 +19°C° 0.2 mm 3 mps 751 mmHg 70%
19:00 +18°C° 0.2 mm 3 mps 751 mmHg 74%
20:00 +17°C° 0.1 mm 3 mps 751 mmHg 79%
21:00 +16°C° 0.1 mm 3 mps 752 mmHg 84%
22:00 +14°C° 0.1 mm 3 mps 752 mmHg 88%
23:00 +13°C° 0.4 mm 3 mps 752 mmHg 90%

Tomorrow, 17 July, Friday

Time Temperature Precipitation Wind Pressure Humidity
00:00 +13°C° 0.4 mm 3 mps 752 mmHg 91%
01:00 +13°C° 0.4 mm 3 mps 753 mmHg 93%
02:00 +13°C° 0 mm 3 mps 753 mmHg 92%
03:00 +12°C° 0 mm 3 mps 753 mmHg 92%
04:00 +12°C° 0 mm 3 mps 753 mmHg 92%
05:00 +13°C° 0 mm 3 mps 753 mmHg 88%
06:00 +14°C° 0 mm 3 mps 753 mmHg 84%
07:00 +16°C° 0 mm 3 mps 753 mmHg 81%
08:00 +17°C° 0 mm 3 mps 753 mmHg 74%
09:00 +19°C° 0 mm 4 mps 753 mmHg 67%
10:00 +20°C° 0 mm 4 mps 753 mmHg 60%
11:00 +21°C° 0 mm 3 mps 753 mmHg 59%
12:00 +21°C° 0 mm 3 mps 753 mmHg 58%
13:00 +22°C° 0 mm 3 mps 753 mmHg 58%
14:00 +23°C° 0 mm 2 mps 753 mmHg 57%
15:00 +23°C° 0 mm 2 mps 753 mmHg 57%
16:00 +23°C° 0 mm 2 mps 753 mmHg 57%
17:00 +23°C° 0 mm 2 mps 752 mmHg 61%
18:00 +22°C° 0 mm 1 mps 752 mmHg 66%
19:00 +21°C° 0 mm 1 mps 752 mmHg 70%
20:00 +20°C° 0 mm 1 mps 753 mmHg 73%
21:00 +19°C° 0 mm 1 mps 753 mmHg 76%
22:00 +16°C° 0 mm 1 mps 753 mmHg 79%
23:00 +16°C° 0 mm 1 mps 753 mmHg 82%

Day after tomorrow, 18 July, Saturday

Time Temperature Precipitation Wind Pressure Humidity
00:00 +15°C° 0 mm 1 mps 753 mmHg 85%
01:00 +15°C° 0 mm 1 mps 753 mmHg 88%
02:00 +15°C° 0 mm 1 mps 753 mmHg 88%
03:00 +15°C° 0 mm 1 mps 753 mmHg 89%
04:00 +15°C° 0 mm 1 mps 753 mmHg 90%
05:00 +16°C° 0 mm 1 mps 753 mmHg 86%
06:00 +18°C° 0 mm 1 mps 753 mmHg 83%
07:00 +18°C° 0 mm 2 mps 753 mmHg 80%
08:00 +19°C° 0 mm 2 mps 753 mmHg 75%
09:00 +21°C° 0 mm 2 mps 753 mmHg 70%
10:00 +23°C° 0 mm 2 mps 753 mmHg 65%
11:00 +24°C° 0 mm 2 mps 753 mmHg 61%
12:00 +25°C° 0 mm 2 mps 753 mmHg 57%
13:00 +26°C° 0 mm 3 mps 753 mmHg 53%
14:00 +26°C° 0.2 mm 2 mps 752 mmHg 56%
15:00 +26°C° 0.2 mm 2 mps 752 mmHg 59%
16:00 +25°C° 0.2 mm 2 mps 752 mmHg 62%
17:00 +25°C° 0 mm 1 mps 752 mmHg 65%
18:00 +24°C° 0 mm 1 mps 752 mmHg 69%
19:00 +21°C° 0 mm 0 mps 752 mmHg 72%
20:00 +22°C° 0.3 mm 1 mps 752 mmHg 74%
21:00 +22°C° 0.3 mm 1 mps 752 mmHg 77%
22:00 +21°C° 0.3 mm 1 mps 752 mmHg 79%
23:00 +21°C° 0.1 mm 1 mps 752 mmHg 81%

19 July, Sunday

Time Temperature Precipitation Wind Pressure Humidity
00:00 +20°C° 0.1 mm 1 mps 752 mmHg 83%
01:00 +19°C° 0.1 mm 2 mps 752 mmHg 85%
02:00 +19°C° 0 mm 1 mps 752 mmHg 87%
03:00 +19°C° 0 mm 1 mps 752 mmHg 88%
04:00 +19°C° 0 mm 1 mps 752 mmHg 90%
05:00 +20°C° 0 mm 1 mps 752 mmHg 87%
06:00 +20°C° 0 mm 2 mps 752 mmHg 85%
07:00 +21°C° 0 mm 2 mps 752 mmHg 83%
08:00 +23°C° 0.4 mm 2 mps 752 mmHg 78%
09:00 +25°C° 0.4 mm 2 mps 752 mmHg 73%
10:00 +26°C° 0.4 mm 2 mps 752 mmHg 68%
11:00 +26°C° 1.2 mm 2 mps 751 mmHg 65%
12:00 +27°C° 1.2 mm 2 mps 751 mmHg 63%
13:00 +28°C° 1.2 mm 1 mps 751 mmHg 60%
14:00 +28°C° 0.9 mm 1 mps 751 mmHg 60%
15:00 +28°C° 0.9 mm 1 mps 750 mmHg 61%
16:00 +28°C° 0.9 mm 1 mps 750 mmHg 61%
17:00 +27°C° 0.2 mm 1 mps 750 mmHg 65%
18:00 +26°C° 0.2 mm 1 mps 750 mmHg 70%
19:00 +25°C° 0.2 mm 1 mps 750 mmHg 74%
20:00 +24°C° 0.1 mm 1 mps 750 mmHg 76%
21:00 +21°C° 0.1 mm 0 mps 750 mmHg 79%
22:00 +20°C° 0.1 mm 0 mps 750 mmHg 81%
23:00 +19°C° 0 mm 0 mps 750 mmHg 82%

20 July, Monday

Time Temperature Precipitation Wind Pressure Humidity
00:00 +19°C° 0 mm 0 mps 750 mmHg 84%
01:00 +19°C° 0 mm 0 mps 750 mmHg 85%
02:00 +20°C° 0.2 mm 1 mps 750 mmHg 87%
03:00 +20°C° 0.2 mm 1 mps 749 mmHg 89%
04:00 +20°C° 0.2 mm 1 mps 749 mmHg 90%
05:00 +20°C° 0.3 mm 2 mps 749 mmHg 88%
06:00 +21°C° 0.3 mm 2 mps 749 mmHg 86%
07:00 +23°C° 0.3 mm 2 mps 749 mmHg 83%
08:00 +24°C° 0.7 mm 3 mps 749 mmHg 78%
09:00 +25°C° 0.7 mm 3 mps 749 mmHg 74%
10:00 +26°C° 0.7 mm 4 mps 749 mmHg 69%
11:00 +27°C° 0.7 mm 4 mps 749 mmHg 67%
12:00 +27°C° 0.7 mm 4 mps 749 mmHg 66%
13:00 +27°C° 0.7 mm 5 mps 749 mmHg 64%
14:00 +27°C° 0.3 mm 5 mps 750 mmHg 65%
15:00 +26°C° 0.3 mm 5 mps 750 mmHg 66%
16:00 +26°C° 0.3 mm 6 mps 750 mmHg 68%
17:00 +25°C° 0.1 mm 5 mps 750 mmHg 72%
18:00 +23°C° 0.1 mm 5 mps 751 mmHg 76%
19:00 +21°C° 0.1 mm 4 mps 751 mmHg 81%
20:00 +20°C° 0 mm 4 mps 752 mmHg 84%
21:00 +19°C° 0 mm 4 mps 752 mmHg 87%
22:00 +18°C° 0 mm 4 mps 753 mmHg 91%
23:00 +17°C° 0 mm 4 mps 753 mmHg 89%

21 July, Tuesday

Time Temperature Precipitation Wind Pressure Humidity
00:00 +16°C° 0 mm 3 mps 753 mmHg 87%
01:00 +14°C° 0 mm 3 mps 753 mmHg 86%
02:00 +13°C° 0 mm 3 mps 754 mmHg 86%
03:00 +13°C° 0 mm 3 mps 754 mmHg 87%
04:00 +13°C° 0 mm 2 mps 754 mmHg 88%
05:00 +14°C° 0 mm 2 mps 754 mmHg 82%
06:00 +14°C° 0 mm 3 mps 755 mmHg 76%
07:00 +16°C° 0 mm 3 mps 755 mmHg 70%
08:00 +17°C° 0 mm 3 mps 755 mmHg 63%
09:00 +19°C° 0 mm 3 mps 755 mmHg 57%
10:00 +20°C° 0 mm 3 mps 755 mmHg 50%
11:00 +21°C° 0 mm 3 mps 755 mmHg 47%
12:00 +22°C° 0 mm 3 mps 754 mmHg 45%
13:00 +22°C° 0 mm 3 mps 754 mmHg 42%
14:00 +22°C° 0 mm 3 mps 754 mmHg 44%
15:00 +22°C° 0 mm 4 mps 754 mmHg 45%
16:00 +22°C° 0 mm 4 mps 753 mmHg 46%
17:00 +21°C° 0 mm 3 mps 753 mmHg 52%
18:00 +20°C° 0 mm 3 mps 753 mmHg 58%
19:00 +19°C° 0 mm 2 mps 753 mmHg 65%
20:00 +18°C° 0 mm 2 mps 754 mmHg 68%
21:00 +16°C° 0 mm 3 mps 754 mmHg 71%
22:00 +14°C° 0 mm 3 mps 754 mmHg 74%
23:00 +13°C° 0 mm 3 mps 754 mmHg 76%
Show more